Weather in Tompo

Russia / Sakha (Yakutia) Republic     63°54′52″N   135°51′07″E
temp.,
°C
wind,
m/s
gust,
m/s
humid.,
%
clouds,
%
prec.,
mm/h
press.,
hPa
HPBL,
m
16 october, sat
sat1601:00−17nnw229171 0.0 102713
04:00−18nnw229259 0.0 102712
07:00−18nnw229350 0.0 102611
10:00−16n128743 0.0 1025100
13:00−13nne128052 0.0 1022303
16:00−13ne118410 0.0 102146
19:00−17n22947 0.0 102310
22:00−19nnw229520 0.0 102310
17 october, sun
sun1701:00−20n229535 0.0 102311
04:00−20nnw229536 0.0 102311
07:00−21n119510 0.0 102310
10:00−18n128811 0.0 1023113
13:00−15nne237930 0.0 1021321
16:00−15nne22838 0.0 102161
19:00−19n32926 0.0 102318
22:00−20nnw22925 0.0 102315
18 october, mon
mon1801:00−21n22928 0.0 102214
04:00−21n22935 0.0 102213
07:00−22nnw22937 0.0 102212
10:00−20nne12875 0.0 102094
13:00−17ne117910 0.0 1018247
16:00−16se00855 0.0 101733
19:00−20wsw11955 0.0 10189
22:00−22nw009728 0.0 10189
19 october, tue
tue1901:00−23nnw119981 0.0 10179
04:00−23nnw1110090 0.0 10179
07:00−24nnw1110085 0.0 10179
10:00−22n0094100 0.0 101685
13:00−19ese1085100 0.0 1015162
16:00−17ese0183100 0.0 1014113
19:00−19nne009264 0.0 10159
22:00−21wnw009524 0.0 10179
20 october, wed
wed2001:00−22ssw009749 0.0 101710
04:00−22s009879 0.0 101813
07:00−21sse1197100 0.0 101737
10:00−18ese1192100 0.1 1017122
13:00−15sse1290100 0.1 1015284
16:00−14sse1293100 0.4 1013213
19:00−15sse1197100 0.2 101315
22:00−15s0097100 0.3 101210